Home   Weather   South Bend   Past weeks

Flag for USA Past Weather in South Bend, Indiana, USA — Yesterday and Last 2 Weeks

Now
55 °F

Fog.


Feels Like: 51 °F
Forecast: 49 / 64 °F
Wind: 14 mph from South

Location: Michiana Regional Airport

Current Time: Feb 22, 2017 at 11:06:31 am

Latest Report: Feb 22, 2017 at 9:54 am


Visibility: 4 mi

Pressure: 29.82 "Hg

Humidity: 93%

Dew Point: 53 °F

Location of South BendLocation

Past Weather in South Bend — Graph

°F

South Bend Temperature Yesterday

Maximum temperature yesterday: 62 °F (at 3:54 pm)
Minimum temperature yesterday: 46 °F (at 10:54 pm)
Average temperature yesterday: 54 °F

High & Low Weather Summary for the Past Weeks

 TemperatureHumidityPressure
High66 °F (Feb 18, 3:54 pm)100% (Feb 7, 9:54 am)30.36 "Hg (Feb 7, 9:54 am)
Low14 °F (Feb 10, 12:54 am)23% (Feb 19, 3:54 pm)29.29 "Hg (Feb 7, 3:24 pm)
Average39 °F71%29.92 "Hg
* Reported Feb 7 9:54 am — Feb 22 9:54 am, South Bend, Weather by CustomWeather, © 2017

Note: Actual official high and low records may vary slightly from our data, if they occured in-between our weather recording intervals... More about our weather records

Advertising

South Bend Weather History for the Previous 24 Hours

Scroll right to see more
 ConditionsComfort  
Time TempWeatherWind HumidityBarometerVisibility
9:54 am
Wed, Feb 22
55 °FFog.14 mph93%29.82 "Hg4 mi
9:19 am53 °FFog.8 mph96%29.84 "Hg3 mi
8:54 am50 °FFog.7 mph100%29.85 "Hg1 mi
7:54 am47 °FFog.6 mph100%29.86 "Hg3 mi
6:54 am49 °FFog.6 mph97%29.87 "Hg4 mi
5:54 am50 °FFog.8 mph93%29.86 "Hg5 mi
4:54 am49 °FFog.7 mph97%29.87 "Hg4 mi
3:54 am47 °FFog.5 mph100%29.87 "Hg5 mi
3:12 am45 °FFog.3 mph100%29.87 "Hg3 mi
3:01 am42 °FFog.No wind100%29.87 "Hg1 mi
2:38 am41 °FFog.3 mph100%29.87 "Hg1 mi
1:54 am43 °FFog.No wind100%29.88 "Hg0 mi
1:15 am44 °FFog.No wind100%29.88 "Hg0 mi
1:07 am43 °FFog.No wind100%29.88 "Hg1 mi
12:37 am43 °FFog.No wind100%29.88 "Hg1 mi
11:54 pm
Tue, Feb 21
49 °FFog.3 mph97%29.89 "Hg6 mi
10:54 pm46 °FFog.3 mph96%29.92 "Hg4 mi
9:54 pm47 °FFog.No wind93%29.94 "Hg4 mi
8:54 pm50 °FClear.5 mph93%29.93 "Hg10 mi
7:54 pm52 °FClear.5 mph89%29.94 "Hg10 mi
6:54 pm55 °FClear.6 mph87%29.93 "Hg10 mi
5:54 pm59 °FScattered clouds.5 mph78%29.94 "Hg10 mi
4:54 pm62 °FScattered clouds.7 mph73%29.94 "Hg10 mi
3:54 pm62 °FSunny.5 mph73%29.92 "Hg10 mi
2:54 pm61 °FSunny.8 mph75%29.93 "Hg10 mi
1:54 pm59 °FPassing clouds.10 mph84%29.95 "Hg10 mi
11:54 am54 °FPartly sunny.8 mph97%29.97 "HgN/A
Weather by CustomWeather, © 2017

See weather overviewHow to use our weather pages